Regional Weather Roundup
Issued by NWS State College, PA

Home | Current Version | Previous Version | Text Only | Print | Product List | Glossary On
Versions: 1 2 3 4 5 6 7 8 9 10 11 12 13 14 15 16 17 18 19 20 21 22 23 24 25 26 27 28 29 30 31 32 33 34 35 36 37 38 39 40 41 42 43 44 45 46 47 48 49 50
000
ASUS41 KCTP 282103
RWRCTP

REGIONAL WEATHER ROUNDUP
NATIONAL WEATHER SERVICE STATE COLLEGE PA
500 PM EDT THU MAY 28 2015

Note: "fair" indicates few or no clouds below 12,000 feet with no
significant weather and/or obstructions to visibility.

* = STATION THAT DOES NOT REPORT PRECIPITATION /E.G. RAIN...SNOW...ETC/
    THUNDER OR FOG.

PAZ002>004-007>009-013>016-020>023-029>032-282200-
WESTERN PENNSYLVANIA

CITY           SKY/WX    TMP DP  RH WIND       PRES   REMARKS
ERIE           SUNNY     76  48  37 N7        30.25F
MEADVILLE      SUNNY     76  50  40 CALM      30.25F
FRANKLIN*      SUNNY     75  54  46 NE5       30.27F
NEW CASTLE     FAIR      79  55  43 CALM      30.24F
BEAVER COUNTY  SUNNY     77  55  47 NE5       30.24F
BUTLER*        SUNNY     77  52  41 SE8       30.26F
PITTSBURGH INT MOSUNNY   79  55  43 E6        30.23F
PITTSBURGH     PTSUNNY   75  53  46 E5        30.23F
INDIANA*       SUNNY     77  55  47 CALM      30.28F
LATROBE        NOT AVBL
WASHINGTON CO* MOSUNNY   79  63  57 CALM      30.25F
$$

PAZ004>006-010>012-017>019-024>028-033>037-041-042-045-046-049>053-282200-
CENTRAL PENNSYLVANIA

CITY           SKY/WX    TMP DP  RH WIND       PRES   REMARKS
BRADFORD       SUNNY     74  48  39 N5        30.28F
DUBOIS         PTSUNNY   78  49  35 NW5       30.26F
CLEARFIELD     PTSUNNY   78  50  37 NE6       30.26S
JOHNSTOWN      PTSUNNY   77  51  40 N9        30.26F
ALTOONA        PTSUNNY   80  51  36 NE8       30.24F
STATE COLLEGE  MOSUNNY   81  52  36 NW8       30.23
WILLIAMSPORT   MOSUNNY   83  50  31 NW9       30.18S
SELINSGROVE    MOSUNNY   86  52  30 NE12      30.19S HAZE
FT INDIANTOWN  MOSUNNY   83  59  44 VRB3      30.18S
CAPITAL CITY   MOSUNNY   85  57  38 NW10      30.17S
HARRISBURG     PTSUNNY   85  60  42 N9        30.16F
YORK           MOSUNNY   84  64  50 W5        30.17S
$$

PAZ038>040-043-044-047-048-054-055-060>062-067>071-282200-
EASTERN PENNSYLVANIA

CITY           SKY/WX    TMP DP  RH WIND       PRES   REMARKS
SCRANTON       MOSUNNY   82  55  39 NW10      30.20S
MOUNT POCONO   MOSUNNY   78  50  37 NW15G21   30.22S
ALLENTOWN      MOSUNNY   86  56  35 NW7       30.15S
QUAKERTOWN*    PTCLDY    84  63  48 W9        30.17S
READING        MOSUNNY   87  59  38 NW10      30.15F
LANCASTER      MOSUNNY   86  59  39 N14       30.17F
COATESVILLE    MOCLDY    84  64  51 NW10      30.18F
POTTSTOWN      PTSUNNY   83  62  49 NW10G17   30.16F
BLUE BELL      PTSUNNY   86  68  54 NW5       30.14S
DOYLESTOWN     PTSUNNY   85  63  47 W9        30.14S
WILLOW GROVE   NOT AVBL
NORTH PHILA    PTSUNNY   87  64  46 W7        30.14F
PHILADELPHIA   CLOUDY    82  60  47 SW13      30.14S
$$


USA.gov is the U.S. government's official web portal to all federal, state and local government web resources and services.